sat.trackr.live / text

‹ back to catalog

STARLINK-36068

NORAD 66845 · 2025-280AA

PAYLOAD ACTIVE UNKNOWN

§ Identity

Operator
Country
US
Launch date
2025-12-02
Launch site
AFWTR
Launch vehicle
Mass (kg)
RCS (m²)

Purposes: comms

External: N2YO · Heavens-Above · Gunter

§ Orbital elements

Epoch: 2026-09-20T06:10:32.303712Z

Period
96.11 min
Inclination
70.0007°
Eccentricity
0.0002989
Mean motion
14.98322100 rev/d
Perigee alt
570.0 km
Apogee alt
574.2 km
Semi-major
6,950.2 km
B*
3.4473e-4
RAAN
203.7414°
Arg perigee
251.9254°
Mean anomaly
108.1580°
Rev number
4,522

§ Raw data

STARLINK-360681 66845U 25280AA  26263.25731833  .00004022  00000+0  34473-3 0  99982 66845  70.0007 203.7414 0002989 251.9254 108.1580 14.98322100 45228

JSON: /api/v1/satellites/66845 · /tle

For live sub-satellite position, see the globe view (requires WebGL).

§ Visibility from observer

Set your observer location to see the next 7 days of passes ≥ 10°. The values pass through the URL so the page stays shareable.

No JS? Fill the form by hand. The geolocation button needs JavaScript.